N853CM KSLC-KASE

Flight info

Callsign N853CM
Flight time 1h 10m
Altitude 29000
Route RUGGD3 EKR DBL
Aircraft SF50/L-SDGRWY/L

Departure

Time 2026-04-24 00:10
Airport Salt Lake City International Airport (KSLC)

Arrival

Time 2026-04-24 01:21
Airport Aspen-Pitkin County Airport (Sardy Field) (KASE)
Time Latitude Longitude Altitude Speed Heading
2026-04-23 23:56 40.77499 -111.95992 4258 ft 0 kts
2026-04-24 00:05 40.77503 -111.96000 4256 ft 4 kts 280°
2026-04-24 00:05 40.77509 -111.96048 4258 ft 7 kts 279°
2026-04-24 00:05 40.77473 -111.96063 4258 ft 6 kts 163°
2026-04-24 00:06 40.77469 -111.96062 4258 ft 0 kts 160°
2026-04-24 00:06 40.77468 -111.96062 4258 ft 0 kts 162°
2026-04-24 00:06 40.77444 -111.96065 4258 ft 9 kts 183°
2026-04-24 00:07 40.77342 -111.96065 4258 ft 20 kts 181°
2026-04-24 00:07 40.77318 -111.96107 4258 ft 15 kts 29°
2026-04-24 00:07 40.77328 -111.96100 4258 ft 0 kts 20°
2026-04-24 00:07 40.77351 -111.96119 4260 ft 9 kts 317°
2026-04-24 00:08 40.77394 -111.96204 4259 ft 14 kts 352°
2026-04-24 00:08 40.77457 -111.96209 4260 ft 0 kts 359°
2026-04-24 00:09 40.77588 -111.96209 4259 ft 49 kts
2026-04-24 00:09 40.78132 -111.96209 4256 ft 105 kts 360°
2026-04-24 00:10 40.78982 -111.96239 4455 ft 127 kts 352°
2026-04-24 00:10 40.79936 -111.96341 4725 ft 151 kts
2026-04-24 00:10 40.81064 -111.96226 4929 ft 173 kts
2026-04-24 00:10 40.82310 -111.96179 5469 ft 180 kts 359°
2026-04-24 00:11 40.83532 -111.96286 6307 ft 175 kts 346°
2026-04-24 00:11 40.84704 -111.96691 7105 ft 174 kts 345°
2026-04-24 00:11 40.85899 -111.97012 7773 ft 180 kts 346°
2026-04-24 00:11 40.87141 -111.97312 8486 ft 182 kts 345°
2026-04-24 00:12 40.88396 -111.97618 9222 ft 182 kts 342°
2026-04-24 00:12 40.89223 -111.97821 9709 ft 183 kts 344°
2026-04-24 00:12 40.90893 -111.98229 10518 ft 178 kts 343°
2026-04-24 00:12 40.91735 -111.98436 10654 ft 190 kts 343°
2026-04-24 00:13 40.93006 -111.98749 11275 ft 184 kts 343°
2026-04-24 00:13 40.94273 -111.99062 11735 ft 185 kts 343°
2026-04-24 00:13 40.95544 -111.99373 12233 ft 185 kts 343°
2026-04-24 00:13 40.96797 -111.99681 12714 ft 185 kts 343°
2026-04-24 00:14 40.98066 -111.99992 13199 ft 185 kts 343°
2026-04-24 00:14 40.99338 -112.00304 13667 ft 185 kts 342°
2026-04-24 00:14 41.00605 -112.00616 14099 ft 185 kts 342°
2026-04-24 00:14 41.01896 -112.00850 14490 ft 190 kts 352°
2026-04-24 00:15 41.03224 -112.00621 14897 ft 198 kts
2026-04-24 00:15 41.04527 -111.99888 15294 ft 208 kts 22°
2026-04-24 00:15 41.05667 -111.98638 15690 ft 219 kts 40°
2026-04-24 00:15 41.06506 -111.96922 16060 ft 229 kts 58°
2026-04-24 00:16 41.07167 -111.94989 16438 ft 231 kts 58°
2026-04-24 00:16 41.07852 -111.93070 16819 ft 232 kts 57°
2026-04-24 00:16 41.08542 -111.91119 17197 ft 234 kts 58°
2026-04-24 00:16 41.09228 -111.89153 17601 ft 236 kts 58°
2026-04-24 00:17 41.09923 -111.87172 18017 ft 237 kts 57°
2026-04-24 00:17 41.10629 -111.85173 18395 ft 241 kts 57°
2026-04-24 00:17 41.11329 -111.83165 18654 ft 243 kts 57°
2026-04-24 00:17 41.11963 -111.81066 18913 ft 250 kts 69°
2026-04-24 00:18 41.12130 -111.78730 19248 ft 258 kts 89°
2026-04-24 00:18 41.11777 -111.76365 19537 ft 263 kts 109°
2026-04-24 00:18 41.10915 -111.74241 19896 ft 261 kts 129°
2026-04-24 00:18 41.09651 -111.72574 20223 ft 258 kts 146°
2026-04-24 00:19 41.08238 -111.71091 20545 ft 260 kts 146°
2026-04-24 00:19 41.06829 -111.69569 20872 ft 261 kts 145°
2026-04-24 00:19 41.05411 -111.68050 21215 ft 261 kts 146°
2026-04-24 00:19 41.03998 -111.66556 21559 ft 260 kts 146°
2026-04-24 00:20 41.02583 -111.65050 21903 ft 260 kts 146°
2026-04-24 00:20 41.01184 -111.63560 22253 ft 260 kts 146°
2026-04-24 00:20 40.99772 -111.62060 22603 ft 260 kts 146°
2026-04-24 00:20 40.98364 -111.60559 22964 ft 260 kts 146°
2026-04-24 00:21 40.96953 -111.59060 23317 ft 259 kts 146°
2026-04-24 00:21 40.95545 -111.57570 23652 ft 259 kts 146°
2026-04-24 00:21 40.94138 -111.56072 23917 ft 258 kts 145°
2026-04-24 00:21 40.92738 -111.54589 24212 ft 258 kts 145°
2026-04-24 00:22 40.91335 -111.53105 24525 ft 257 kts 146°
2026-04-24 00:22 40.89955 -111.51642 24815 ft 257 kts 146°
2026-04-24 00:22 40.88555 -111.50165 25117 ft 257 kts 146°
2026-04-24 00:22 40.87163 -111.48688 25440 ft 256 kts 146°
2026-04-24 00:23 40.85767 -111.47212 25747 ft 256 kts 146°
2026-04-24 00:23 40.84374 -111.45744 26036 ft 256 kts 147°
2026-04-24 00:23 40.82993 -111.44285 26323 ft 256 kts 147°
2026-04-24 00:23 40.81602 -111.42820 26610 ft 256 kts 147°
2026-04-24 00:24 40.80250 -111.41277 26866 ft 259 kts 136°
2026-04-24 00:24 40.79254 -111.39271 27171 ft 262 kts 116°
2026-04-24 00:24 40.78681 -111.37029 27433 ft 262 kts 104°
2026-04-24 00:24 40.78170 -111.34717 27695 ft 262 kts 106°
2026-04-24 00:25 40.77637 -111.32411 27983 ft 262 kts 106°
2026-04-24 00:25 40.77112 -111.30095 28271 ft 262 kts 106°
2026-04-24 00:25 40.76597 -111.27808 28535 ft 262 kts 106°
2026-04-24 00:25 40.76367 -111.26784 28652 ft 263 kts 106°
2026-04-24 00:26 40.76012 -111.25223 28835 ft 262 kts 107°
2026-04-24 00:27 40.75815 -111.24364 28936 ft 262 kts 107°
2026-04-24 00:27 40.75288 -111.22060 29029 ft 270 kts 107°
2026-04-24 00:28 40.74736 -111.19633 29040 ft 280 kts 107°
2026-04-24 00:28 40.74165 -111.17138 29044 ft 288 kts 107°
2026-04-24 00:28 40.73579 -111.14566 29039 ft 296 kts 107°
2026-04-24 00:28 40.72987 -111.11967 29038 ft 303 kts 107°
2026-04-24 00:29 40.71747 -111.06544 29049 ft 313 kts 107°
2026-04-24 00:29 40.70476 -111.00970 29046 ft 324 kts 107°
2026-04-24 00:30 40.69140 -110.95173 29041 ft 333 kts 107°
2026-04-24 00:30 40.67788 -110.89276 29009 ft 340 kts 107°
2026-04-24 00:31 40.66414 -110.83324 29023 ft 344 kts 107°
2026-04-24 00:31 40.65007 -110.77243 29032 ft 348 kts 108°
2026-04-24 00:32 40.63581 -110.71095 29013 ft 351 kts 108°
2026-04-24 00:32 40.62151 -110.64940 29012 ft 354 kts 108°
2026-04-24 00:33 40.60704 -110.58732 28994 ft 352 kts 108°
2026-04-24 00:33 40.59277 -110.52624 28989 ft 350 kts 108°
2026-04-24 00:34 40.57838 -110.46482 28975 ft 353 kts 108°
2026-04-24 00:34 40.56422 -110.40452 28945 ft 348 kts 108°
2026-04-24 00:35 40.54988 -110.34377 28954 ft 349 kts 108°
2026-04-24 00:35 40.53575 -110.28275 28931 ft 352 kts 105°
2026-04-24 00:36 40.52413 -110.22002 28935 ft 354 kts 104°
2026-04-24 00:36 40.51219 -110.15689 28924 ft 355 kts 104°
2026-04-24 00:37 40.50040 -110.09410 28925 ft 358 kts 104°
2026-04-24 00:37 40.48836 -110.03069 28908 ft 360 kts 104°
2026-04-24 00:38 40.47621 -109.96657 28914 ft 360 kts 104°
2026-04-24 00:38 40.46412 -109.90322 28909 ft 358 kts 104°
2026-04-24 00:39 40.45199 -109.83978 28896 ft 356 kts 104°
2026-04-24 00:39 40.43982 -109.77631 28901 ft 361 kts 105°
2026-04-24 00:40 40.42753 -109.71248 28907 ft 362 kts 105°
2026-04-24 00:40 40.41519 -109.64846 28957 ft 360 kts 105°
2026-04-24 00:41 40.40296 -109.58528 28958 ft 358 kts 105°
2026-04-24 00:41 40.39064 -109.52193 28956 ft 359 kts 105°
2026-04-24 00:42 40.37829 -109.45845 28963 ft 361 kts 105°
2026-04-24 00:42 40.36577 -109.39453 28955 ft 359 kts 105°
2026-04-24 00:43 40.35343 -109.33165 28940 ft 357 kts 105°
2026-04-24 00:43 40.34102 -109.26858 28919 ft 356 kts 105°
2026-04-24 00:44 40.32865 -109.20582 28909 ft 359 kts 105°
2026-04-24 00:44 40.31608 -109.14226 28898 ft 360 kts 105°
2026-04-24 00:45 40.30344 -109.07867 28897 ft 358 kts 105°
2026-04-24 00:45 40.29097 -109.01601 28893 ft 355 kts 105°
2026-04-24 00:46 40.27847 -108.95355 28895 ft 357 kts 106°
2026-04-24 00:46 40.26579 -108.89032 28897 ft 359 kts 106°
2026-04-24 00:47 40.25312 -108.82729 28901 ft 360 kts 106°
2026-04-24 00:47 40.24032 -108.76384 28896 ft 358 kts 106°
2026-04-24 00:48 40.22761 -108.70090 28886 ft 355 kts 105°
2026-04-24 00:48 40.21503 -108.63892 28884 ft 354 kts 105°
2026-04-24 00:49 40.20227 -108.57625 28890 ft 357 kts 105°
2026-04-24 00:49 40.18941 -108.51317 28888 ft 359 kts 106°
2026-04-24 00:50 40.17657 -108.45066 28892 ft 358 kts 106°
2026-04-24 00:50 40.16367 -108.38776 28899 ft 357 kts 106°
2026-04-24 00:51 40.15074 -108.32503 28898 ft 356 kts 106°
2026-04-24 00:51 40.13788 -108.26275 28897 ft 356 kts 106°
2026-04-24 00:52 40.12487 -108.19989 28900 ft 359 kts 106°
2026-04-24 00:52 40.11170 -108.13660 28894 ft 360 kts 105°
2026-04-24 00:53 40.09870 -108.07412 28892 ft 356 kts 106°
2026-04-24 00:53 40.08566 -108.01182 28896 ft 355 kts 106°
2026-04-24 00:54 40.07255 -107.94957 28985 ft 358 kts 107°
2026-04-24 00:54 40.06276 -107.91975 28982 ft 357 kts 122°
2026-04-24 00:54 40.04854 -107.89336 28986 ft 352 kts 133°
2026-04-24 00:55 40.01360 -107.85145 28982 ft 334 kts 161°
2026-04-24 00:55 39.97070 -107.83081 28992 ft 329 kts 167°
2026-04-24 00:56 39.92860 -107.80729 28894 ft 338 kts 154°
2026-04-24 00:56 39.91027 -107.78757 28898 ft 345 kts 139°
2026-04-24 00:56 39.89551 -107.76251 28905 ft 348 kts 128°
2026-04-24 00:57 39.86797 -107.71059 28922 ft 351 kts 129°
2026-04-24 00:58 39.82698 -107.63147 28927 ft 351 kts 128°
2026-04-24 00:58 39.79957 -107.57911 28927 ft 350 kts 128°
2026-04-24 00:59 39.77230 -107.52664 28918 ft 348 kts 128°
2026-04-24 00:59 39.74532 -107.47501 28912 ft 347 kts 128°
2026-04-24 01:00 39.71822 -107.42316 28908 ft 346 kts 128°
2026-04-24 01:00 39.69566 -107.38007 28926 ft 348 kts 128°
2026-04-24 01:01 39.66374 -107.31925 28920 ft 350 kts 128°
2026-04-24 01:01 39.64096 -107.27587 28932 ft 347 kts 128°
2026-04-24 01:02 39.61380 -107.22427 28932 ft 347 kts 128°
2026-04-24 01:02 39.58201 -107.16398 28959 ft 348 kts 128°
2026-04-24 01:03 39.55918 -107.12073 28969 ft 350 kts 128°
2026-04-24 01:03 39.53181 -107.06892 28978 ft 347 kts 128°
2026-04-24 01:04 39.50461 -107.01760 28985 ft 348 kts 128°
2026-04-24 01:04 39.47692 -106.96542 28980 ft 352 kts 128°
2026-04-24 01:05 39.44930 -106.91341 28963 ft 349 kts 128°
2026-04-24 01:05 39.42198 -106.86209 28862 ft 347 kts 128°
2026-04-24 01:06 39.39442 -106.81045 28852 ft 350 kts 128°
2026-04-24 01:06 39.36669 -106.75849 28986 ft 351 kts 128°
2026-04-24 01:07 39.33914 -106.70691 28979 ft 349 kts 128°
2026-04-24 01:07 39.31161 -106.65557 28702 ft 350 kts 128°
2026-04-24 01:07 39.29776 -106.62973 28248 ft 347 kts 128°
2026-04-24 01:08 39.28525 -106.60332 27782 ft 343 kts 117°
2026-04-24 01:08 39.27809 -106.57406 27327 ft 341 kts 101°
2026-04-24 01:08 39.27646 -106.54358 26932 ft 341 kts 85°
2026-04-24 01:08 39.28048 -106.51347 26503 ft 339 kts 70°
2026-04-24 01:09 39.28977 -106.48576 26071 ft 334 kts 54°
2026-04-24 01:09 39.30355 -106.46200 25640 ft 328 kts 40°
2026-04-24 01:09 39.32054 -106.44358 25215 ft 317 kts 26°
2026-04-24 01:09 39.33982 -106.43070 24793 ft 307 kts 13°
2026-04-24 01:10 39.36004 -106.42373 24373 ft 296 kts
2026-04-24 01:10 39.38048 -106.42235 23820 ft 293 kts 350°
2026-04-24 01:10 39.40047 -106.42639 23434 ft 288 kts 339°
2026-04-24 01:10 39.41884 -106.43525 23021 ft 280 kts 328°
2026-04-24 01:11 39.43526 -106.44839 22648 ft 274 kts 318°
2026-04-24 01:11 39.44904 -106.46493 22292 ft 275 kts 309°
2026-04-24 01:11 39.46035 -106.48495 21923 ft 277 kts 299°
2026-04-24 01:11 39.46852 -106.50759 21561 ft 278 kts 289°
2026-04-24 01:12 39.47306 -106.53159 21195 ft 271 kts 279°
2026-04-24 01:12 39.47401 -106.55616 20840 ft 278 kts 270°
2026-04-24 01:12 39.47135 -106.58112 20470 ft 284 kts 262°
2026-04-24 01:12 39.46763 -106.60618 20100 ft 283 kts 262°
2026-04-24 01:13 39.46416 -106.63127 19725 ft 283 kts 263°
2026-04-24 01:13 39.46063 -106.65647 19349 ft 286 kts 262°
2026-04-24 01:13 39.45697 -106.68193 18975 ft 289 kts 262°
2026-04-24 01:13 39.45328 -106.70764 18585 ft 291 kts 262°
2026-04-24 01:14 39.44958 -106.73329 18211 ft 294 kts 262°
2026-04-24 01:14 39.44580 -106.75955 17786 ft 296 kts 262°
2026-04-24 01:14 39.44204 -106.78565 17374 ft 294 kts 262°
2026-04-24 01:14 39.43832 -106.81156 17068 ft 293 kts 262°
2026-04-24 01:15 39.43480 -106.83781 16724 ft 297 kts 265°
2026-04-24 01:15 39.43537 -106.86385 16348 ft 289 kts 278°
2026-04-24 01:15 39.44060 -106.88891 16049 ft 288 kts 291°
2026-04-24 01:15 39.45019 -106.91172 15673 ft 290 kts 303°
2026-04-24 01:16 39.46069 -106.93386 15282 ft 288 kts 292°
2026-04-24 01:16 39.46424 -106.95879 14835 ft 284 kts 270°
2026-04-24 01:16 39.46024 -106.98364 14446 ft 282 kts 249°
2026-04-24 01:16 39.44917 -107.00469 14058 ft 285 kts 227°
2026-04-24 01:17 39.43281 -107.01859 13669 ft 288 kts 206°
2026-04-24 01:17 39.41292 -107.02341 13261 ft 295 kts 183°
2026-04-24 01:17 39.39268 -107.01748 12855 ft 304 kts 160°
2026-04-24 01:17 39.37569 -107.00114 12459 ft 304 kts 136°
2026-04-24 01:18 39.36166 -106.98074 12056 ft 309 kts 134°
2026-04-24 01:18 39.34764 -106.95986 11677 ft 304 kts 134°
2026-04-24 01:18 39.33357 -106.93939 11303 ft 305 kts 135°
2026-04-24 01:18 39.31911 -106.92061 10905 ft 280 kts 144°
2026-04-24 01:19 39.30362 -106.90782 10457 ft 255 kts 156°
2026-04-24 01:19 39.28800 -106.89974 10005 ft 228 kts 165°
2026-04-24 01:19 39.27391 -106.89307 9478 ft 200 kts 166°
2026-04-24 01:19 39.26158 -106.88707 8977 ft 180 kts 163°
2026-04-24 01:20 39.25076 -106.88199 8512 ft 149 kts 160°
2026-04-24 01:20 39.24183 -106.87767 8092 ft 127 kts 166°
2026-04-24 01:20 39.23424 -106.87385 7810 ft 112 kts 158°
2026-04-24 01:20 39.22730 -106.87078 7722 ft 92 kts 171°
2026-04-24 01:21 39.22340 -106.86866 7745 ft 17 kts 165°
2026-04-24 01:21 39.22256 -106.86848 7750 ft 8 kts 168°
2026-04-24 01:21 39.22223 -106.86838 7753 ft 4 kts 168°
2026-04-24 01:21 39.22182 -106.86821 7757 ft 8 kts 158°
2026-04-24 01:22 39.22090 -106.86777 7766 ft 21 kts 159°
2026-04-24 01:22 39.22031 -106.86664 7769 ft 17 kts 55°
2026-04-24 01:22 39.22125 -106.86639 7764 ft 12 kts 11°
2026-04-24 01:22 39.22139 -106.86636 7762 ft 0 kts